STARLINK-4497 (53411 NORAD) Tracking and Keplerian Element Data

This shows tracking and keplerian element data for the satellite.

Feedback or suggestion? Click here.




ElementValue
Catalog53411
NameSTARLINK-4497
Epoch Orbit1631
Epoch Day325.14127765
Epoch Year2022
RAAN121.5427
Inclination53.2161
Eccentricity0.0002246
Argument of Perigee42.0648
Mean Anonmoly318.0516
Mean Motion15.08840949
Decay Rate-1.21E-06
L11 53411U 22097Z 22325.14127765 -.00000121 00000+0 10502-4 0 9997
L22 53411 53.2161 121.5427 0002246 42.0648 318.0516 15.08840949 16317



Live tracking and technical data element details for STARLINK-4497 (NORAD 53411). STARLINK-4497 can be tracked NOW for your location showing map with azimuth and elevation plus other details from your city location.







IsCatalogInMostPopularTable: catalog: 53411, numindb: 5
Update: records affected: 1



GetName: 53411 STARLINK-4497

Hit Count: updated at: Thu, 08 Dec 2022 20:00:32 GMT